Regional Weather Roundup
Issued by NWS

Home | Current Version | Previous Version | Text Only | Print | Product List | Glossary Off
Versions: 1 2 3 4 5 6 7 8 9 10 11 12 13 14 15 16 17 18 19 20 21 22 23 24 25 26 27 28 29 30 31 32 33 34 35 36 37 38 39 40 41 42 43 44 45 46 47 48 49 50

000
ASUS43 KIND 010409
RWRIN

WEATHER ROUNDUP FOR INDIANA
NATIONAL WEATHER SERVICE INDIANAPOLIS IN
1200 AM EDT WED OCT 01 2014

NOTE: "FAIR" INDICATES FEW OR NO CLOUDS BELOW 12,000 FEET WITH NO
SIGNIFICANT WEATHER AND/OR OBSTRUCTIONS TO VISIBILITY.

* - STATION DOES NOT REPORT WEATHER SUCH AS PRECIPITATION OR FOG.

+ - STATION NOT QUALITY CONTROLLED BY THE NATIONAL WEATHER SERVICE.
    USE DATA WITH CAUTION...ESPECIALLY DEWPOINT AND RELATIVE
    HUMIDITY OBSERVATIONS.

INZ001>003-010>013-019-020-010500-
NORTHWEST INDIANA

CITY           SKY/WX    TMP DP  RH WIND       PRES   REMARKS
GARY /AIRPORT/ MOCLDY    55  46  74 E5        30.04S
KNOX *+        CLOUDY    48  45  90 CALM      30.02S
LA PORTE +     CLOUDY    54  49  82 CALM      30.04S
MICHIGAN CITY+ CLOUDY    52  45  76 CALM      30.04F
MONTICELLO +   CLEAR     47  46  95 NE3       30.01S
RENSSELAER +   CLEAR     46  45  93 NE5       30.03S
VALPARAISO     CLOUDY    51  46  83 NE3       30.03F

$$

LMZ046-743>745-010500-
SOUTHERN LAKE MICHIGAN

STATION/POSITION TIME  TEMP WIND        PRES
                       AIR  DIR/SP/G
                 (UTC) (F)  (DEG/KT/KT) (MB)
MICHIGAN CITY    0400   53   60/  4/  5   N/A

$$

INZ004-005-014>016-021>024-010500-
NORTH CENTRAL INDIANA

CITY           SKY/WX    TMP DP  RH WIND       PRES   REMARKS
LOGANSPORT +   PTCLDY    46  45  93 CALM      30.03S
PERU/GRISSOM   PTCLDY    46  46 100 NE5       30.02S
ROCHESTER +    MOCLDY    48  46  93 CALM      30.03S
SOUTH BEND     NOT AVBL
WARSAW +       CLOUDY    54  46  76 E5        30.02F

$$

INZ006>009-017-018-025>027-010500-
NORTHEAST INDIANA

CITY           SKY/WX    TMP DP  RH WIND       PRES   REMARKS
ANGOLA *+      CLOUDY    54  46  76 E6        30.03S
AUBURN +       CLEAR     55  46  71 CALM      30.03S
FORT WAYNE     CLOUDY    55  48  77 NE3       30.02S
HUNTINGTON +   CLOUDY    51  48  92 CALM      30.01S

$$

INZ028-029-035-036-043>045-051>053-010500-
WEST CENTRAL INDIANA

CITY           SKY/WX    TMP DP  RH WIND       PRES   REMARKS
GREENCASTLE +  CLEAR     54  48  82 NE5       30.00R
LAFAYETTE      CLEAR     49  46  90 NE6       30.01S
TERRE HAUTE    CLEAR     57  50  77 NE7       29.98R

$$

INZ030>032-037>040-046>048-054>057-064-065-010500-
CENTRAL INDIANA

CITY           SKY/WX    TMP DP  RH WIND       PRES   REMARKS
CP ATTERBURY + CLEAR     54  48  82 NE5       30.00R
FRANKFORT +    CLEAR    N/A N/A N/A NE3       30.02S
INDIANAPOLIS   PTCLDY    54  47  77 NE9       29.99R
-EAGLE CREEK   CLEAR     53  46  77 NE6       30.00R
KOKOMO *+      CLEAR     46  43  87 CALM      30.02S
MARION +       PTCLDY    46  44  91 CALM      30.02R
MT COMFORT *+  CLEAR     48  46  93 CALM      30.01S
SHELBYVILLE    FAIR      53  48  83 NE5       29.99R
ZIONSVILLE +   CLEAR     48  44  87 CALM      30.02R

$$

INZ033-034-041-042-049-050-058-059-010500-
EAST CENTRAL INDIANA

CITY           SKY/WX    TMP DP  RH WIND       PRES   REMARKS
MUNCIE         PTCLDY    45  44  97 CALM      30.01R

$$

INZ060-061-067>069-081>083-085>088-010500-
SOUTHWEST INDIANA

CITY           SKY/WX    TMP DP  RH WIND       PRES   REMARKS
EVANSVILLE     CLEAR     66  60  81 N6        29.93S
WASHINGTON +   CLEAR     59  58  95 CALM      29.95R

$$

INZ062-063-066-070>080-084-089>092-010500-
SOUTH CENTRAL AND SOUTHEAST INDIANA

CITY           SKY/WX    TMP DP  RH WIND       PRES   REMARKS
BLOOMINGTON    CLEAR     59  53  80 NE6       29.97R

$$



USA.gov is the U.S. government's official web portal to all federal, state and local government web resources and services.